Location: Cran-Gévrier
(45.9039°N, 6.1012°E)
Time: 20:04:10
(UTC+00:00)

FENGYUN 1C DEB - Visible Passes

Search period start: 26 February 2024 00:00
Search period end: 07 March 2024 00:00
Orbit: 759 x 906 km, 98.5° (Epoch: 21 February)

Date Brightness Start Highest point End Pass type
(mag) Time Alt. Az. Time Alt. Az. Time Alt. Az.
26 Feb ? 05:26:06 10° NNE 05:31:30 71° ESE 05:36:38 10° S visible
27 Feb ? 05:09:13 10° NNE 05:14:25 50° E 05:19:25 10° S visible
27 Feb ? 18:19:33 10° WSW 18:21:53 12° W 18:24:12 10° WNW visible
28 Feb ? 04:52:24 10° NNE 04:57:17 36° E 05:02:00 10° SSE visible
28 Feb ? 18:00:54 10° SW 18:04:39 18° W 18:08:22 10° NW visible
29 Feb ? 04:35:44 10° NE 04:40:07 26° E 04:44:22 10° SSE visible
01 Mar ? 04:19:17 10° NE 04:22:54 18° E 04:26:26 10° SE visible
02 Mar ? 04:03:18 10° ENE 04:05:38 13° E 04:07:55 10° ESE visible
02 Mar ? 05:41:28 10° NNE 05:46:47 85° WNW 05:51:53 10° SSW visible
03 Mar ? 05:24:28 10° NNE 05:29:44 69° ESE 05:34:48 10° S visible
04 Mar ? 05:07:34 10° NNE 05:12:39 49° E 05:17:33 10° S visible
04 Mar ? 18:17:55 10° WSW 18:20:13 12° W 18:22:30 10° WNW visible
05 Mar ? 04:50:45 10° NNE 04:55:30 35° E 05:00:07 10° SSE visible
05 Mar ? 17:59:15 10° SW 18:02:58 18° W 18:06:38 10° NW visible
06 Mar ? 04:34:05 10° NE 04:38:19 25° E 04:42:27 10° SSE visible
